Regional Weather Roundup
Issued by NWS

Home | Current Version | Previous Version | Graphics & Text | Print | Product List | Glossary On
Versions: 1 2 3 4 5 6 7 8 9 10 11 12 13 14 15 16 17 18 19 20 21 22 23 24 25 26 27 28 29 30 31 32 33 34 35 36 37 38 39 40 41 42 43 44 45 46 47 48 49 50
000
ASUS43 KLOT 131208
RWRIL

ILLINOIS REGIONAL WEATHER ROUNDUP
NATIONAL WEATHER SERVICE CHICAGO/ROMEOVILLE IL
600 AM CST WED DEC 13 2017

NOTE: "FAIR" INDICATES FEW OR NO CLOUDS BELOW 12,000 FEET WITH NO
SIGNIFICANT WEATHER AND/OR OBSTRUCTIONS TO VISIBILITY.

* THESE STATIONS ARE NOT UNDER NWS QUALITY CONTROL. THEY ALSO MAY NOT
  REPORT WEATHER SUCH AS PRECIPITATION OR FOG.

ILZ001-002-007-009-015-016-024-131300-
NORTHWEST ILLINOIS

CITY           SKY/WX    TMP DP  RH WIND       PRES   REMARKS
MOLINE         PTCLDY    32  20  61 S12G24    29.53F WCI  23
6HR MIN TEMP:  28; 6HR MAX TEMP:  32;

STERLING*      CLOUDY    27  19  72 SE7       29.59F WCI  19
SAVANNA*       CLOUDY    27  20  75 S14       29.52F WCI  16
$$

ILZ003-004-008-010-011-017-018-131300-
NORTH CENTRAL ILLINOIS

CITY           SKY/WX    TMP DP  RH WIND       PRES   REMARKS
ROCKFORD       CLOUDY    25  16  68 S18       29.60F WCI  11
6HR MIN TEMP:  22; 6HR MAX TEMP:  25;

FREEPORT*      CLOUDY    25  18  73 S22       29.55F WCI  10
ROCHELLE*      CLOUDY    24  17  74 S17       29.61F WCI  11
DE KALB*       CLOUDY    24  16  71 S13       29.63F WCI  12
PERU*          CLOUDY    25  13  59 S16       29.64F WCI  12
$$

ILZ005-006-012>014-019>023-131300-
NORTHEAST ILLINOIS

CITY           SKY/WX    TMP DP  RH WIND       PRES   REMARKS
CHICAGO-OHARE  CLOUDY    25  12  58 S12       29.68F WCI  14
6HR MIN TEMP:  22; 6HR MAX TEMP:  25;

CHICAGO-MIDWAY CLOUDY    26  11  52 S12       29.70F WCI  16
6HR MIN TEMP:  22; 6HR MAX TEMP:  26;

AURORA         CLOUDY    25  14  63 SE13      29.66F WCI  14
6HR MIN TEMP:  20; 6HR MAX TEMP:  25;

LANSING*       CLOUDY    25  13  60 S14       29.74F WCI  13
JOLIET*        CLOUDY    28  12  52 S8        29.70F WCI  20
WAUKEGAN       CLOUDY    24  11  57 S14       29.65F WCI  12
6HR MIN TEMP:  19; 6HR MAX TEMP:  24;

DUPAGE AIRPORT CLOUDY    25  13  60 S14       29.66F WCI  13
6HR MIN TEMP:  20; 6HR MAX TEMP:  25;

KANKAKEE*      CLOUDY    26  10  49 S9        29.74F WCI  17
WHEELING       CLOUDY    25  13  60 S12       29.69F WCI  14
6HR MIN TEMP:  22; 6HR MAX TEMP:  25;

MORRIS*        CLOUDY    26  11  52 S13       29.68F WCI  15
ROMEOVILLE*    CLOUDY    25  12  58 S10       29.69F WCI  15
NORTHERLY ISL    N/A     24  10  55 S8          N/A  WCI  15
$$

LMZ740>746-131300-
SOUTHERN LAKE MICHIGAN

STATION/POSITION SKY/WX   TEMP    WIND        PRES    VSBY  WAVE
                          AIR SEA DIR/SP/G                  HT/PER
                          (F)     (DEG/KT/KT) (MB)    (MI)  (FT/S)
HARRISON CRIB              26     190/ 20/ 23   N/A
BURNHAM HARBOR             25     170/  7/ 11   N/A
CALUMET HARBOR             24     160/ 11/ 17 1006.1F
BURNS HARBOR               23     170/  9/ 15 1008.1F
MICHIGAN CITY              21     140/ 12/ 15   N/A
$$

ILZ025>027-034>036-040-047-049-050-058-095>099-131300-
WEST-CENTRAL ILLINOIS

CITY           SKY/WX    TMP DP  RH WIND       PRES   REMARKS
QUINCY         CLEAR     32  21  64 S17       29.63F WCI  21
GALESBURG*     CLOUDY    30  21  69 S14G20    29.60F WCI  19
MACOMB*        PTCLDY    30  20  67 S17       29.64F WCI  18
JACKSONVILLE*  CLOUDY    29  16  57 S14       29.70F WCI  18
PITTSFIELD*    CLOUDY    30  19  61 S12G17    29.70F WCI  21
$$

ILZ028>032-037-038-041>044-048-051>054-059>061-131300-
CENTRAL ILLINOIS

CITY           SKY/WX    TMP DP  RH WIND       PRES   REMARKS
PONTIAC        CLOUDY    26  11  53 S14       29.70F WCI  14
BLOOMINGTON    PTCLDY    24  13  62 S15       29.71F WCI  11
DECATUR        CLOUDY    27  12  53 S12       29.77F WCI  17
PEORIA         CLOUDY    27  14  58 S13G22    29.66F WCI  16
6HR MIN TEMP:  23; 6HR MAX TEMP:  27;

LACON*         MOCLDY    28  15  56 S12G17    29.63F WCI  18
LINCOLN*       CLOUDY    27  14  59 S10       29.72F WCI  17
SPRINGFIELD    PTCLDY    30  16  56 S15       29.73F WCI  19
6HR MIN TEMP:  24; 6HR MAX TEMP:  30;

TAYLORVILLE    CLEAR     26  13  59 S14G20    29.77F WCI  14
6HR MIN TEMP:  21; 6HR MAX TEMP:  26;

$$

ILZ033-039-045-046-055>057-062-063-131300-
EAST-CENTRAL ILLINOIS

CITY           SKY/WX    TMP DP  RH WIND       PRES   REMARKS
CHAMPAIGN      CLOUDY    26  10  50 S14       29.78F WCI  14
DANVILLE*      CLOUDY    24  10  54 S9        29.78F WCI  15
RANTOUL*       CLOUDY    27  13  54 S12       29.76F WCI  17
MATTOON        CLOUDY    25  12  58 S12       29.80F WCI  14
PARIS*         CLOUDY    24  11  56 S10       29.84F WCI  14
$$

ILZ079-100>102-131300-
SOUTHWEST ILLINOIS

CITY           SKY/WX    TMP DP  RH WIND       PRES   REMARKS
ALTON          CLEAR     26  16  63 S10       29.79F WCI  17
BELLEVILLE     CLEAR     26  13  59 S6        29.82F WCI  19
CAHOKIA*       CLEAR     27  14  58 S6        29.81F WCI  20
SPARTA*        CLEAR     27  14  57 S10       29.88F WCI  17
$$

ILZ064>066-069>071-074>076-080>082-084>086-088>090-092>094-131300-
SOUTH-CENTRAL ILLINOIS

CITY           SKY/WX    TMP DP  RH WIND       PRES   REMARKS
CARBONDALE     CLEAR     28  13  53 SW14      29.90F WCI  17
6HR MIN TEMP:  20; 6HR MAX TEMP:  28;

CAIRO*         CLEAR     29  18  61 S6        29.97S WCI  23
EFFINGHAM*     MOCLDY    26  12  56 S6        29.85F WCI  19
MARION         CLEAR     26  15  64 S8        29.92F WCI  17
MT. VERNON     PTCLDY    26  16  65 SW9       29.88F WCI  17
CENTRALIA*     PTCLDY    27  15  59 S12       29.85F WCI  17
SALEM*         PTCLDY    29  13  52 S9        29.85F WCI  20
METROPOLIS*    CLOUDY    27  14  56 S7        29.97F WCI  20
$$

ILZ067-068-072-073-078-083-087-091-131300-
SOUTHEAST ILLINOIS

CITY           SKY/WX    TMP DP  RH WIND       PRES   REMARKS
LAWRENCEVILLE  CLOUDY    21  13  71 S8        29.90F WCI  11
FLORA*         CLOUDY    28  14  56 S13       29.88F WCI  17
FAIRFIELD*     PTCLDY    24  14  66 S6        29.89F WCI  17
HARRISBURG*    CLOUDY    26  14  61 S5        29.94F WCI  20
ROBINSON*      MOCLDY    21  12  68 S9        29.88F WCI  10
CARMI*         CLEAR     23  15  71 S7        29.92F WCI  14
$$

ABBREVIATIONS USED IN REMARKS
   TC - TEMPERATURE IN CELSIUS
  WCI - WIND CHILL INDEX
   HX - HEAT INDEX
  VSB - VISIBILITY
$$





USA.gov is the U.S. government's official web portal to all federal, state and local government web resources and services.